Weather History for Charlottesville, VA

Change the Weather History Date:

Thursday, July 17, 2014

  Actual Average Record
Temperature  
Mean Temperature 72 °F 76 °F  
Max Temperature 82 °F 86 °F 101 °F (1977)
Min Temperature 61 °F 65 °F 53 °F (1929)
Degree Days  
Heating Degree Days 0 0  
Month to date heating degree days 0 0  
Since 1 June heating degree days 2 11  
Since 1 July heating degree days 0 0  
Cooling Degree Days 7 11  
Month to date cooling degree days 197 182  
Year to date cooling degree days 585 487  
Since 1 June cooling degree days 469 401  
Growing Degree Days 22 (Base 50)    
Moisture  
Dew Point 55 °F    
Average Humidity 62    
Maximum Humidity 87    
Minimum Humidity 36    
Precipitation  
Precipitation 0.00 in 0.14 in 0.36 in (2004)
Month to date precipitation 2.13 2.31  
Year to date precipitation 23.25 22.51  
Sea Level Pressure  
Sea Level Pressure 30.03 in    
Wind  
Wind Speed 2 mph (NNE)    
Max Wind Speed 8 mph    
Max Gust Speed 11 mph    
Visibility 10 miles    
Events      
T = Trace of Precipitation, MM = Missing Value Source: NWS Daily Summary

Daily Weather History Graph

Daily Weather History Graph

Search for Another Location

Airport:

Trip Planner

Search our weather history database for the weather conditions in past years. The results will help you decide how hot, cold, wet, or windy it might be!

Date:

Astronomy

Jul. 17, 2014 Rise Set
Actual Time 6:04 AM EDT 8:35 PM EDT
Civil Twilight 5:33 AM EDT 9:05 PM EDT
Nautical Twilight 4:56 AM EDT 9:43 PM EDT
Astronomical Twilight 4:13 AM EDT 10:25 PM EDT
Moon No Moon Rise 12:07 PM EDT (7/17)
Length of Visible Light 15h 31m
Length of Day
14h 30m
Waning Gibbous, 66% of the Moon is Illuminated
Jul 17
Waning Gibbous
Jul 18
Last Quarter
Jul 26
New
Aug 3
First Quarter
Aug 10
Full

Hourly Weather History & Observations

Time (EDT) Temp. Heat Index Dew Point Humidity Pressure Visibility Wind Dir Wind Speed Gust Speed Precip Events Conditions
12:53 AM 68.0 °F - 55.9 °F 65% 29.96 in 10.0 mi Calm Calm - N/A   Overcast
1:53 AM 69.1 °F - 53.1 °F 57% 29.95 in 10.0 mi Calm Calm - N/A   Overcast
2:53 AM 66.0 °F - 55.9 °F 70% 29.96 in 10.0 mi Calm Calm - N/A   Overcast
3:53 AM 66.9 °F - 51.1 °F 57% 29.96 in 10.0 mi Calm Calm - N/A   Mostly Cloudy
4:53 AM 64.9 °F - 52.0 °F 63% 29.96 in 10.0 mi Calm Calm - N/A   Scattered Clouds
5:53 AM 62.1 °F - 54.0 °F 75% 29.99 in 10.0 mi Calm Calm - N/A   Mostly Cloudy
6:53 AM 62.1 °F - 55.0 °F 78% 30.01 in 10.0 mi Calm Calm - N/A   Scattered Clouds
7:53 AM 68.0 °F - 57.0 °F 68% 30.03 in 10.0 mi Calm Calm - N/A   Scattered Clouds
8:53 AM 71.1 °F - 55.0 °F 57% 30.04 in 10.0 mi Calm Calm - N/A   Clear
10:53 AM 75.9 °F - 54.0 °F 46% 30.06 in 10.0 mi NW 4.6 mph - N/A   Clear
11:53 AM 77.0 °F - 54.0 °F 45% 30.05 in 10.0 mi Variable 4.6 mph - N/A   Partly Cloudy
12:53 PM 78.1 °F - 51.1 °F 39% 30.04 in 10.0 mi Calm Calm - N/A   Scattered Clouds
1:53 PM 78.1 °F - 53.1 °F 42% 30.04 in 10.0 mi South 5.8 mph - N/A   Clear
2:53 PM 79.0 °F - 52.0 °F 39% 30.03 in 10.0 mi SW 4.6 mph - N/A   Scattered Clouds
3:53 PM 81.0 °F - 52.0 °F 36% 30.03 in 10.0 mi Calm Calm - N/A   Partly Cloudy
4:53 PM 81.0 °F 80.4 °F 53.1 °F 38% 30.03 in 10.0 mi Variable 4.6 mph - N/A   Overcast
5:53 PM 78.1 °F - 52.0 °F 40% 30.04 in 10.0 mi ENE 3.5 mph - N/A   Partly Cloudy
6:53 PM 79.0 °F - 54.0 °F 42% 30.05 in 10.0 mi NE 5.8 mph - N/A   Clear
7:53 PM 75.9 °F - 59.0 °F 56% 30.07 in 10.0 mi ENE 6.9 mph - N/A   Scattered Clouds
8:53 PM 71.1 °F - 59.0 °F 66% 30.09 in 10.0 mi North 3.5 mph - N/A   Clear
9:53 PM 69.1 °F - 60.1 °F 73% 30.11 in 10.0 mi North 4.6 mph - N/A   Clear
10:53 PM 68.0 °F - 60.1 °F 76% 30.13 in 10.0 mi North 3.5 mph - N/A   Clear
11:53 PM 64.9 °F - 60.1 °F 84% 30.13 in 10.0 mi Calm Calm - N/A   Clear